Location: Ravensburg
(47.7866°N, 9.6124°E)
Time: 07:13:11
(UTC+02:00)

STARS - Pass Details

Date: 20 March 2026
Orbit: 575 x 588 km, 98.2° (Epoch: 15 April)

Event Time Altitude Azimuth Distance (km) Brightness Sun altitude
Rises 02:07:19 0° 18° (NNE) 2,799 ? -37.9°
Reaches altitude 10° 02:09:32 10° 24° (NNE) 1,895 ? -37.7°
Enters shadow 02:09:50 12° 26° (NNE) 1,782 ? -37.7°
